Regional Weather Roundup
Issued by NWS

Home | Current Version | Previous Version | Graphics & Text | Print | Product List | Glossary On
Versions: 1 2 3 4 5 6 7 8 9 10 11 12 13 14 15 16 17 18 19 20 21 22 23 24 25 26 27 28 29 30 31 32 33 34 35 36 37 38 39 40 41 42 43 44 45 46 47 48 49 50
000
ASUS43 KFSD 270210
RWRSD

WEATHER ROUNDUP FOR SOUTH DAKOTA
NATIONAL WEATHER SERVICE SIOUX FALLS SD
900 PM CDT THU MAY 26 2016

NOTE: "FAIR" INDICATES FEW OR NO CLOUDS BELOW 12,000 FEET WITH NO
SIGNIFICANT WEATHER AND/OR OBSTRUCTIONS TO VISIBILITY.


SDZ001>005-009-010-012>017-270300-
NORTHWEST AND NORTH CENTRAL SOUTH DAKOTA

CITY           SKY/WX    TMP DP  RH WIND       PRES   REMARKS
BUFFALO          N/A     59  43  55 N10       29.79R
FAITH            N/A     61  42  49 N8        29.82R
MOBRIDGE       PTCLDY    71  49  45 NW3       29.76R
$$

SDZ012>016-024>037-041>051-057-063-072>074-270300-
SOUTHWEST AND SOUTH CENTRAL SOUTH DAKOTA

CITY           SKY/WX    TMP DP  RH WIND       PRES   REMARKS
RAPID CTY ARPT MOCLDY    60  49  66 N5        29.83R
PIERRE         CLEAR     65  52  62 NW7       29.76F
CUSTER         CLOUDY    55  42  61 E6        29.91S
ELLSWORTH AFB  PTCLDY    64  44  48 CALM      29.83R
PHILIP         PTCLDY    62  53  72 N3        29.79S
PINE RIDGE     PTCLDY    61  46  57 NW7       29.80F
WINNER         FAIR      67  57  70 E9        29.76S
$$

SDZ004>011-016>023-039-040-270300-
NORTHEAST SOUTH DAKOTA

CITY           SKY/WX    TMP DP  RH WIND       PRES   REMARKS
ABERDEEN       LGT RAIN  74  55  51 SW6       29.77S
WATERTOWN      PTCLDY    70  49  47 SE3       29.79F
BROOKINGS      PTCLDY    70  53  54 SE5       29.79F
SISSETON         N/A     71  50  47 S6        29.76F
$$

SDZ017-020-022-023-036>040-048>070-270300-
SOUTHEAST SOUTH DAKOTA

CITY           SKY/WX    TMP DP  RH WIND       PRES   REMARKS
SIOUX FALLS    CLOUDY    66  56  70 E6        29.79F
HURON          CLOUDY    70  55  59 SE10      29.75F
CHAMBERLAIN    CLOUDY    69  59  71 SE5       29.77R
MITCHELL       CLOUDY    68  61  78 SE6       29.76F
YANKTON        CLOUDY    70  57  64 NE10      29.74F
$$

ABBREVIATIONS USED IN REMARKS
   TC - TEMPERATURE IN CELSIUS
  WCI - WIND CHILL INDEX
   HX - HEAT INDEX
  VSB - VISIBILITY





USA.gov is the U.S. government's official web portal to all federal, state and local government web resources and services.